Simultaneous Nadir Overpasses (SNOs) Predictions

Prediction of SNOs between GOES-15 and METOP-B Satellite Orbit:

Table of predicted SNOs for the next 14.0 days since TLE Epoch: 9/25/2021
Index Date Time (GOES-15) GOES-15 Lat,Lon METOP-B Lat,Lon Distance(km) Time Diff (sec)
1 09/25/2021 06:00:15 0.32,-127.76 0.31,-127.71 5.68 80
2 09/27/2021 18:01:07 -0.33,-127.63 -0.42,-127.27 40.82 80
3 09/29/2021 06:17:27 0.34,-127.60 -0.63,-131.87 486.24 80
4 09/30/2021 05:59:27 0.33,-127.56 0.49,-126.87 78.74 80
5 10/01/2021 18:15:39 -0.34,-127.46 0.52,-131.43 452.03 80
6 10/02/2021 17:57:38 -0.33,-127.42 -0.54,-126.42 112.73 80
7 10/04/2021 06:14:00 0.35,-127.38 -0.44,-131.03 414.98 80
8 10/05/2021 05:55:59 0.34,-127.34 0.62,-126.02 149.49 80
9 10/06/2021 18:12:10 -0.35,-127.23 0.39,-130.58 382.02 80
10 10/07/2021 17:54:11 -0.34,-127.18 -0.73,-125.59 182.17 80
